sat.trackr.live / text

‹ back to catalog

STARLINK-11522 [DTC]

NORAD 63141 · 2025-043K

PAYLOAD ACTIVE UNKNOWN

§ Identity

Operator
Country
US
Launch date
2025-03-03
Launch site
AFETR
Launch vehicle
Mass (kg)
RCS (m²)

Purposes: comms

External: N2YO · Heavens-Above · Gunter

§ Orbital elements

Epoch: 2026-09-20T19:44:29.616000Z

Period
91.67 min
Inclination
42.9994°
Eccentricity
0.0003236
Mean motion
15.70843875 rev/d
Perigee alt
354.3 km
Apogee alt
358.7 km
Semi-major
6,734.6 km
B*
9.0840e-4
RAAN
154.3224°
Arg perigee
292.6767°
Mean anomaly
67.3759°
Rev number
8,998

§ Raw data

STARLINK-11522 [DTC]1 63141U 25043K   26263.82256500  .00117815  00000+0  90840-3 0  99922 63141  42.9994 154.3224 0003236 292.6767  67.3759 15.70843875 89987

JSON: /api/v1/satellites/63141 · /tle

For live sub-satellite position, see the globe view (requires WebGL).

§ Visibility from observer

Set your observer location to see the next 7 days of passes ≥ 10°. The values pass through the URL so the page stays shareable.

No JS? Fill the form by hand. The geolocation button needs JavaScript.